Regional Weather Roundup
Issued by NWS

Home | Current Version | Previous Version | Graphics & Text | Print | Product List | Glossary On
Versions: 1 2 3 4 5 6 7 8 9 10 11 12 13 14 15 16 17 18 19 20 21 22 23 24 25 26 27 28 29 30 31 32 33 34 35 36 37 38 39 40 41 42 43 44 45 46 47 48 49 50
000
ASUS43 KLMK 181810
RWRKY
KENTUCKY REGIONAL WEATHER ROUNDUP
NATIONAL WEATHER SERVICE LOUISVILLE KY
200 PM EDT MON SEP 18 2017

NOTE "FAIR" INDICATES FEW OR NO CLOUDS BELOW 12,000 FEET
WITH NO SIGNIFICANT WEATHER AND/OR OBSTRUCTIONS TO VISIBILITY.

KYZ001>023-026-027-061>063-070>075-181900-
WESTERN AND SOUTH CENTRAL KENTUCKY

CITY           SKY/WX    TMP DP  RH WIND       PRES   REMARKS
PADUCAH        CLOUDY    85  71  63 CALM      30.00F HX  90
HENDERSON      LGT RAIN  78  73  84 N7        30.04S
OWENSBORO      TSTM      84  70  61 VRB3      30.03F
HOPKINSVILLE   NOT AVBL
BOWLING GREEN  CLOUDY    87  65  47 VRB3      30.05F
GLASGOW        SUNNY     87  60  41 CALM      30.07F
$$

KYZ024-025-028>034-038-045-046-053-181900-
NORTH CENTRAL KENTUCKY

CITY           SKY/WX    TMP DP  RH WIND       PRES   REMARKS
LOUISVILLE/SDF CLOUDY    81  67  62 W9        30.06F
LOUISVILLE/LOU CLOUDY    82  69  64 W7        30.06F
FORT KNOX      NOT AVBL
$$

KYZ035>037-039>044-047>052-055>060-089>105-181900-
NORTHEAST KENTUCKY

CITY           SKY/WX    TMP DP  RH WIND       PRES   REMARKS
LEXINGTON      MOSUNNY   86  67  52 NW5       30.08F
COVINGTON      PTSUNNY   83  67  58 W3        30.07F
FRANKFORT      MOSUNNY   87  65  47 W6        30.07F
$$

KYZ054-064>069-076>088-106>120-181900-
SOUTHEAST KENTUCKY

CITY           SKY/WX    TMP DP  RH WIND       PRES   REMARKS
JACKSON        MOSUNNY   80  63  55 CALM      30.11S
LONDON         MOSUNNY   81  62  52 CALM      30.09F
SOMERSET       SUNNY     81  61  50 CALM      30.10F
MIDDLESBORO    SUNNY     81  64  55 CALM      30.09F
MONTICELLO     PTCLDY    83  67  58 N12G17    30.10F
$$





USA.gov is the U.S. government's official web portal to all federal, state and local government web resources and services.